Vicksburg, LA

11:34 AM CDT on April 26, 2018 (GMT -0500)
Vicksburg Tallulah Regional

Weather History for KTVR - September, 2011

Change the Weather History Date:

Tuesday, September 13, 2011

  Actual Average Record
Temperature  
Mean Temperature 81 °F 76 °F  
Max Temperature 95 °F 88 °F 99 °F (1980)
Min Temperature 67 °F 64 °F 49 °F (1954)
Degree Days  
Heating Degree Days 0 0  
Month to date heating degree days 1 0  
Since 1 July heating degree days 1 0  
Cooling Degree Days 16 11  
Month to date cooling degree days 124 161  
Year to date cooling degree days 2356 1950  
Growing Degree Days 30 (Base 50)    
Moisture  
Dew Point 68 °F    
Average Humidity 66    
Maximum Humidity 93    
Minimum Humidity 39    
Precipitation  
Precipitation 0.00 in 0.11 in 4.00 in (1982)
Month to date precipitation 4.37 1.55  
Year to date precipitation 26.14 38.12  
Sea Level Pressure  
Sea Level Pressure 29.99 in    
Wind  
Wind Speed 4 mph (South)    
Max Wind Speed 14 mph    
Max Gust Speed 16 mph    
Visibility 10 miles    
Events      
T = Trace of Precipitation, MM = Missing Value Source: NWS Daily Summary

Daily Weather History Graph

Daily Weather History Graph

Search for Another Location

Airport or City:

Astronomy

Sep. 13, 2011 Rise Set
Actual Time 6:46 AM CDT 7:13 PM CDT
Civil Twilight 6:21 AM CDT 7:37 PM CDT
Nautical Twilight 5:52 AM CDT 8:06 PM CDT
Astronomical Twilight 5:23 AM CDT 8:35 PM CDT
Moon 7:39 PM CDT (9/13) 7:52 AM CDT (9/13)
Length of Visible Light 13h 15m
Length of Day
12h 26m
Full, 98% of the Moon is Illuminated
Sep 13
Full
Sep 20
Last Quarter
Sep 27
New
Oct 3
First Quarter
Oct 11
Full

Hourly Weather History & Observations

Time (CDT) Temp. Heat Index Dew Point Humidity Pressure Visibility Wind Dir Wind Speed Gust Speed Precip Events Conditions
12:53 AM 71.1 °F - 66.9 °F 87% 30.04 in 10.0 mi Calm Calm - N/A   Clear
1:53 AM 71.1 °F - 66.0 °F 84% 30.03 in 10.0 mi Calm Calm - N/A   Clear
3:53 AM 73.0 °F - 66.0 °F 79% 30.02 in 10.0 mi SSW 3.5 mph - N/A   Clear
4:53 AM 71.1 °F - 66.0 °F 84% 30.03 in 10.0 mi SSW 3.5 mph - N/A   Clear
5:53 AM 70.0 °F - 64.9 °F 84% 30.04 in 10.0 mi South 3.5 mph - N/A   Clear
6:53 AM 66.9 °F - 64.0 °F 90% 30.04 in 8.0 mi Calm Calm - N/A   Clear
7:53 AM 72.0 °F - 68.0 °F 87% 30.05 in 9.0 mi South 3.5 mph - N/A   Clear
8:53 AM 79.0 °F - 71.1 °F 77% 30.04 in 10.0 mi SSW 5.8 mph - N/A   Clear
9:53 AM 82.9 °F 87.0 °F 70.0 °F 65% 30.04 in 10.0 mi Variable 6.9 mph - N/A   Clear
10:53 AM 88.0 °F 90.7 °F 66.9 °F 49% 30.03 in 10.0 mi WSW 9.2 mph - N/A   Unknown
11:53 AM 91.0 °F 93.0 °F 64.9 °F 42% 30.02 in 10.0 mi Variable 6.9 mph - N/A   Clear
1:53 PM 93.9 °F 96.1 °F 64.9 °F 38% 29.99 in 10.0 mi SW 6.9 mph - N/A   Clear
2:53 PM 95.0 °F 97.9 °F 66.0 °F 38% 29.96 in 10.0 mi SSE 5.8 mph - N/A   Clear
3:53 PM 93.9 °F 97.5 °F 66.9 °F 41% 29.95 in 10.0 mi Variable 4.6 mph - N/A   Clear
4:53 PM 93.0 °F 97.4 °F 68.0 °F 44% 29.94 in 10.0 mi South 6.9 mph - N/A   Clear
5:53 PM 91.9 °F 95.4 °F 66.9 °F 44% 29.93 in 10.0 mi SSE 10.4 mph - N/A   Clear
6:53 PM 87.1 °F 91.3 °F 69.1 °F 55% 29.93 in 10.0 mi SSE 6.9 mph - N/A   Clear
7:53 PM 82.0 °F 85.9 °F 70.0 °F 67% 29.93 in 10.0 mi SSE 3.5 mph - N/A   Clear
8:53 PM 78.1 °F - 70.0 °F 76% 29.95 in 10.0 mi Calm Calm - N/A   Clear
9:53 PM 75.0 °F - 71.1 °F 87% 29.96 in 10.0 mi Calm Calm - N/A   Clear
10:53 PM 75.9 °F - 70.0 °F 82% 29.94 in 10.0 mi SSE 4.6 mph - N/A   Clear
11:53 PM 77.0 °F - 70.0 °F 79% 29.94 in 10.0 mi South 3.5 mph - N/A   Clear